SCP
0 0 0 0 0 0 0 0 0 0 0 0 0 0 0 0 0 0 0 0 0 0 0 0 0 0 0 0 0 0 0 1 1 1 1 1 1 0 0 1 1 1 1 0
0 0 0 0 0 0 0 0 0 0 0 0 0 0 0 0 0 0 0 0 0 0 0 0 0 0 0 0 0 0 0 1 1 1 1 1 1 0 0 0 1 1 1 1
0 0 0 0 0 0 0 0 0 0 0 0 0 0 0 0 0 0 0 0 0 0 0 0 0 0 0 0 0 0 0 1 1 1 1 1 1 0 0 1 1 1 1 1
0 0 0 0 0 0 0 0 0 0 0 0 0 0 0 0 0 0 0 0 0 0 0 0 0 0 0 0 1 1 1 1 1 1 1 1 1 1 1 1 1 1 1 1
0 0 0 0 0 0 0 0 0 0 0 0 0 0 0 0 0 0 0 0 0 0 0 0 0 0 0 0 1 1 1 1 1 1 1 1 1 1 1 1 1 1 1 1
0 0 0 0 0 0 0 0 0 0 0 0 0 0 0 0 0 0 0 0 0 0 0 0 1 1 1 0 0 0 1 1 1 1 1 1 1 1 1 1 1 1 1 1
0 0 0 0 0 0 0 0 0 0 0 0 0 0 0 0 0 0 0 0 0 0 0 0 1 1 1 1 0 0 0 0 1 1 1 1 1 1 1 1 1 1 1 1
0 0 0 0 0 0 0 0 0 0 0 0 0 0 0 0 0 0 0 0 0 0 0 1 1 1 1 1 0 0 0 0 0 1 1 1 1 1 1 1 1 1 1 1
0 0 0 0 0 0 0 0 0 0 0 0 0 0 0 0 0 0 0 0 0 0 1 1 1 1 1 1 0 0 0 0 0 0 0 1 1 1 1 1 1 1 1 1
0 0 0 0 0 0 0 0 0 0 0 0 0 0 0 0 0 0 0 0 0 0 1 1 1 2 1 1 0 0 0 0 0 0 0 0 1 1 1 1 1 1 1 1
0 0 0 0 0 0 0 0 0 0 0 0 0 0 0 0 0 0 0 0 0 0 0 1 1 1 1 1 0 0 0 0 0 0 0 0 1 1 1 1 1 1 1 1
0 0 0 0 0 0 0 0 0 0 0 0 0 0 0 0 0 0 0 0 0 0 0 0 0 1 1 1 0 0 0 0 0 0 0 0 0 0 0 0 0 1 1 1
0 0 0 0 0 0 0 0 0 0 0 0 0 0 0 0 0 0 0 0 0 0 0 0 0 1 1 1 0 0 0 0 0 0 0 0 0 0 0 0 0 0 1 1
0 0 0 0 0 0 0 0 0 0 0 0 0 0 0 0 0 0 0 0 0 0 0 0 0 0 1 0 0 0 0 0 0 0 0 0 0 0 0 0 0 0 0 0
0 0 0 0 0 0 0 0 0 0 0 0 0 0 0 0 0 0 0 0 0 0 0 0 0 0 0 0 0 0 0 0 0 0 0 0 0 0 0 0 0 0 0 0
0 0 0 0 0 0 0 0 0 0 0 0 0 0 0 0 0 0 0 0 0 0 0 0 0 0 0 0 0 0 0 0 0 0 0 0 0 0 0 0 0 0 0 0
0 0 0 0 0 0 0 0 0 0 0 0 0 0 0 0 0 0 0 0 0 0 0 0 0 0 0 0 0 0 0 0 0 0 0 0 0 0 0 0 0 0 0 0
0 0 0 0 0 0 0 0 0 0 0 0 0 0 0 0 0 0 0 0 0 0 0 0 0 0 0 0 0 0 0 0 0 0 0 0 0 0 0 0 0 0 0 0
0 0 0 0 0 0 0 0 0 0 0 0 0 0 0 0 0 0 0 0 0 0 0 0 0 0 0 0 0 0 0 0 0 0 0 0 0 0 0 0 0 0 0 0
0 0 0 0 0 0 0 0 0 0 0 0 0 0 0 0 0 0 0 0 0 0 0 0 0 0 0 0 0 0 0 0 0 0 0 0 0 0 0 0 0 0 0 0
0 0 0 0 0 0 0 0 0 0 0 0 0 0 0 0 0 0 0 0 0 0 0 0 0 0 0 0 0 0 0 0 0 0 0 0 0 0 0 0 0 0 0 0
0 0 0 0 0 0 0 0 0 0 0 0 0 0 0 0 0 0 0 0 0 0 0 0 0 0 0 0 0 0 0 0 0 0 0 0 0 0 0 0 0 0 0 0
0 0 0 0 0 0 0 0 0 0 0 0 0 0 0 0 0 0 0 0 0 0 0 0 0 0 0 0 0 0 0 0 0 0 0 0 0 0 0 0 0 0 0 0
0 0 0 0 0 0 0 0 0 0 0 0 0 0 0 0 0 0 0 0 0 0 0 0 0 0 0 0 0 0 0 0 0 0 0 0 0 0 0 0 0 0 0 0
0 0 0 0 0 0 0 0 0 0 0 0 0 0 0 0 0 0 0 0 0 0 0 0 0 0 0 0 0 0 0 0 0 0 0 0 0 0 0 0 0 0 0 0
0 0 0 0 0 0 0 0 0 0 0 0 0 0 0 0 0 0 0 0 0 0 0 0 0 0 0 0 0 0 0 0 0 0 0 0 0 0 0 0 0 0 0 0
Wind_Speed
1 2 3 4 6 6 4 6 7 5 3 4 7 9 9 6 5 6 6 6 6 6 6 4 4 3 3 4 4 5 5 6 5 4 5 6 7 7 7 8 10 10 10 10
2 4 4 4 4 4 5 6 6 4 2 4 5 9 9 8 7 7 7 7 7 6 5 4 4 3 3 4 5 5 6 6 6 5 5 5 5 5 6 6 8 10 10 10
3 2 3 3 4 5 6 7 6 4 3 2 5 9 8 7 6 6 7 7 7 6 6 5 4 4 3 4 4 4 6 6 6 6 4 3 3 3 4 6 6 8 10 10
3 3 3 4 4 5 6 5 5 5 5 3 3 8 7 6 6 6 6 6 6 5 5 5 5 5 4 4 4 5 5 5 5 5 5 6 5 5 6 5 5 6 8 9
2 1 2 4 5 5 3 2 3 4 5 5 5 8 7 4 7 6 6 5 5 5 4 4 4 4 4 3 3 3 3 3 4 4 6 7 6 5 4 4 5 5 5 6
2 2 3 4 4 4 2 1 2 3 4 7 8 9 8 5 7 6 4 4 4 4 4 4 4 3 3 3 3 2 2 2 2 4 5 6 6 5 4 3 3 4 3 4
1 1 1 1 1 2 3 3 3 4 5 7 4 8 8 3 4 4 4 4 4 3 3 3 3 3 3 4 3 3 2 2 2 3 3 4 5 5 5 4 4 4 3 3
1 2 1 1 3 3 5 5 4 4 5 3 4 9 5 2 3 4 5 4 4 4 4 4 4 4 4 4 3 3 2 3 2 2 2 3 3 3 3 4 4 4 3 3
2 2 1 2 2 3 3 4 3 2 2 4 6 6 6 3 3 3 3 3 4 4 4 4 4 4 4 4 4 3 2 2 3 2 2 2 2 2 2 2 3 3 2 2
1 3 3 3 1 1 2 2 2 5 5 6 6 7 5 4 3 3 3 4 4 4 3 4 4 4 4 4 4 4 3 3 3 2 2 2 2 2 2 2 2 2 2 2
1 2 2 1 2 2 2 3 3 3 4 5 5 4 0 2 1 2 3 4 4 4 3 3 4 4 4 4 3 3 4 3 3 3 2 2 2 2 2 2 2 2 2 2
1 2 3 3 2 3 3 3 3 4 4 5 6 4 2 1 2 3 4 5 5 4 3 4 4 3 3 4 4 4 4 4 4 4 3 3 3 2 2 2 2 2 2 2
1 2 2 1 2 2 3 3 3 2 2 5 7 6 2 3 4 4 5 6 5 4 4 4 3 3 3 3 4 4 4 4 4 4 4 3 3 3 3 3 2 2 2 2
1 2 4 5 3 2 5 6 6 5 5 6 10 10 8 6 7 7 7 7 6 5 4 4 4 4 4 4 4 4 4 4 4 4 3 3 4 3 3 3 3 3 2 2
0 2 4 7 8 8 10 12 11 12 11 11 11 13 12 9 9 9 8 7 7 7 6 5 4 4 4 4 5 5 4 4 4 3 3 4 4 4 3 3 3 3 3 2
1 2 2 5 5 7 11 14 14 14 14 15 14 16 10 9 8 8 7 6 6 7 6 5 5 5 5 5 5 5 5 5 4 3 3 4 4 4 4 4 3 3 3 3
2 2 2 5 6 5 9 10 11 9 10 10 13 12 8 8 8 8 7 6 7 7 6 6 6 6 5 5 5 5 5 4 4 4 4 4 4 4 4 4 4 3 3 3
4 3 2 3 2 8 5 2 6 9 10 11 11 10 9 9 9 7 6 6 6 6 6 6 6 6 6 5 5 5 4 4 4 4 4 4 4 4 4 4 4 4 4 3
8 6 4 3 5 9 10 5 5 7 9 9 11 10 8 6 6 6 5 4 5 6 5 5 5 5 5 5 5 4 4 4 4 4 5 5 5 5 5 5 5 4 4 4
5 6 5 5 6 8 6 2 2 3 8 5 7 7 5 3 5 5 4 4 4 4 4 4 4 4 5 5 5 4 4 4 5 6 6 6 5 5 5 5 5 4 4 4
5 6 9 9 9 11 8 2 3 6 5 1 3 4 5 6 6 6 5 4 4 4 4 4 4 4 5 5 4 4 4 5 6 6 6 6 5 5 5 5 4 4 3 3
9 8 8 7 9 12 5 6 8 6 2 2 3 4 5 6 6 6 6 5 5 5 5 5 4 5 5 5 4 4 5 6 6 6 6 6 5 5 4 4 4 3 3 3
10 9 6 10 10 6 5 8 5 3 4 5 5 5 5 7 7 7 7 6 6 5 4 4 4 5 5 4 4 5 6 6 6 5 5 5 5 4 4 4 4 3 2 2
7 5 6 9 12 11 10 10 9 8 8 8 7 6 6 7 8 7 6 5 5 4 4 3 3 4 5 5 4 4 6 6 5 5 5 5 5 5 4 3 3 3 3 3
8 7 7 10 11 10 11 12 11 8 7 6 7 6 7 7 7 7 6 5 5 4 3 3 3 4 5 6 5 5 5 5 5 5 5 5 4 4 4 3 3 3 3 3
9 11 10 12 10 8 8 6 6 7 8 8 7 7 6 6 7 6 5 4 4 4 3 3 3 4 5 5 5 5 5 4 4 5 5 4 4 4 3 3 4 4 4 5
Wind_Direction
118 184 213 228 231 253 246 239 241 253 288 263 249 262 268 272 277 277 276 274 272 271 280 287 284 276 270 260 250 242 237 228 215 209 214 217 222 221 220 219 218 216 216 215
155 227 250 260 245 237 235 245 256 273 309 269 267 271 270 268 261 262 268 270 273 281 289 300 302 292 276 268 260 252 243 235 220 217 213 219 223 225 227 225 223 219 216 215
213 282 255 221 231 236 243 245 252 266 310 266 276 267 252 252 251 258 262 269 276 282 289 295 300 298 293 283 272 259 251 240 228 224 214 211 215 226 219 226 228 223 219 216
250 277 231 223 241 246 248 259 252 251 255 255 255 269 250 250 256 260 263 267 276 284 287 291 296 298 296 291 285 270 260 249 238 220 214 211 212 220 227 227 226 225 222 220
237 260 248 242 246 239 267 278 247 250 248 259 239 256 259 241 256 263 268 272 277 281 285 291 295 297 304 305 298 283 267 255 242 226 220 221 229 233 233 228 225 223 221 223
274 242 248 263 264 234 237 239 262 248 235 245 236 240 259 227 247 264 277 285 284 284 289 297 307 316 323 332 326 309 288 274 254 233 228 226 230 233 230 226 229 228 224 223
305 214 234 249 241 175 194 202 209 211 216 238 219 234 253 244 255 270 282 296 303 303 304 313 318 323 332 340 339 330 318 302 280 247 237 236 237 234 230 231 232 232 230 231
260 264 214 226 225 220 211 215 227 235 236 249 221 236 248 266 282 290 293 301 313 323 330 336 337 338 338 338 338 336 330 318 303 275 256 247 243 240 240 241 245 239 242 247
258 279 324 265 270 207 192 215 245 255 285 260 241 254 266 252 271 308 311 325 334 338 349 357 358 358 353 349 345 336 334 334 326 311 298 275 259 252 257 260 251 253 258 260
278 275 305 314 264 220 240 191 197 213 228 245 248 245 239 220 247 308 323 325 332 342 354 2 2 1 1 354 349 351 353 349 345 338 325 316 296 280 273 267 271 273 270 261
213 246 293 299 222 230 185 188 205 219 249 253 258 249 296 241 280 302 323 331 330 332 342 350 354 360 2 360 359 2 6 5 358 350 333 321 312 302 290 281 283 284 285 272
197 233 261 272 285 284 248 223 211 231 232 243 262 266 62 349 335 328 332 338 331 329 339 342 344 351 359 360 360 1 0 0 353 346 339 331 326 326 315 306 305 299 285 281
208 203 250 239 181 183 234 231 227 247 246 233 241 253 34 339 328 323 323 325 324 330 338 340 340 340 346 349 353 353 351 350 350 348 345 344 343 339 330 323 316 307 292 287
278 227 235 254 285 264 261 253 238 227 237 243 245 263 275 300 309 314 315 315 317 322 328 335 337 339 340 337 339 340 344 348 349 345 343 338 332 328 322 319 316 304 292 283
287 253 260 273 281 274 266 258 247 240 238 244 255 262 271 289 300 304 309 313 316 317 320 325 330 330 334 337 338 338 338 339 339 338 335 325 320 320 317 312 312 309 301 293
219 239 274 282 290 285 272 260 250 248 246 248 258 267 276 287 290 292 297 303 307 310 313 319 324 324 324 327 328 330 332 332 328 324 321 321 322 323 320 318 317 313 305 298
205 189 252 276 318 308 264 249 235 234 235 239 248 258 280 286 283 283 286 291 297 303 306 309 314 316 316 318 320 320 320 322 323 321 319 320 320 319 317 315 311 303 299 297
204 198 229 277 305 251 257 295 245 242 250 243 251 264 266 271 284 289 289 289 298 307 307 310 313 317 320 319 319 319 318 321 321 319 316 316 312 309 310 306 299 295 292 285
212 202 209 226 256 275 282 259 234 239 262 251 249 260 272 281 291 283 294 292 293 299 307 315 321 320 322 324 323 321 321 322 320 316 312 309 303 298 297 293 291 291 287 282
205 206 210 210 237 252 261 252 238 240 267 260 243 251 255 246 271 291 328 312 304 314 320 321 326 329 328 326 323 317 317 321 317 312 309 307 301 294 291 291 291 290 284 280
177 203 217 224 241 261 263 235 180 223 260 295 244 246 238 247 270 306 316 314 315 318 325 326 328 329 326 323 318 314 317 318 316 313 309 306 301 293 289 291 288 285 279 278
194 198 207 206 225 250 214 178 213 246 297 275 258 254 260 274 286 291 293 298 306 311 320 324 324 323 327 328 322 316 316 318 318 313 311 309 306 300 294 289 288 283 272 271
216 211 205 208 226 256 204 220 241 257 260 268 270 274 277 282 285 290 292 295 298 298 307 318 317 317 326 334 328 313 315 322 319 316 313 311 312 307 301 290 287 286 279 273
233 223 227 245 253 254 253 253 254 252 255 265 272 274 270 273 277 283 285 289 291 292 300 311 314 312 317 329 330 311 313 318 313 309 310 312 313 313 312 301 291 282 278 275
222 197 222 248 262 273 260 248 249 254 258 260 267 264 261 263 268 270 275 279 282 288 295 299 297 301 307 317 319 319 319 320 315 311 309 309 308 307 307 304 294 288 278 274
211 206 215 240 236 236 253 250 246 248 253 256 263 268 267 260 263 268 268 270 272 277 288 291 293 297 304 311 312 318 321 316 308 306 307 305 304 303 301 301 300 293 290 294